When you browse on this site, cookies collect data to enhance your experience and personalize the content and advertising you see.
Visit our Privacy Policy to learn more. By continuing to use the site, you agree to this use of cookies and data.
  • In Österreich
  • Länderverzeichnis
  • Für 7 Tage
  • Wassertemperatur
  • Satellitenkarten
  • Wetterkarte
  • News
  • Widgets
  • user-avatar
    Anmelden

    Stündliche Wetter Biskira

    Heute, 27 Juni, Donnerstag

    Zeit Temperatur Niederschläge Wind Luftdruck Luftfeuchtigkeit
    00:00 +37°C° 0 mm 5 m/S 753 mmHg 15%
    01:00 +36°C° 0 mm 4 m/S 753 mmHg 20%
    02:00 +34°C° 0 mm 3 m/S 753 mmHg 25%
    03:00 +31°C° 0 mm 3 m/S 753 mmHg 31%
    04:00 +32°C° 0 mm 2 m/S 753 mmHg 32%
    05:00 +32°C° 0 mm 2 m/S 753 mmHg 33%
    06:00 +32°C° 0 mm 2 m/S 753 mmHg 35%
    07:00 +34°C° 0 mm 2 m/S 754 mmHg 32%
    08:00 +35°C° 0 mm 2 m/S 754 mmHg 30%
    09:00 +37°C° 0 mm 3 m/S 754 mmHg 28%
    10:00 +38°C° 0 mm 3 m/S 753 mmHg 25%
    11:00 +39°C° 0 mm 3 m/S 753 mmHg 22%
    12:00 +42°C° 0 mm 3 m/S 752 mmHg 20%
    13:00 +43°C° 0 mm 3 m/S 752 mmHg 18%
    14:00 +44°C° 0 mm 3 m/S 751 mmHg 16%
    15:00 +45°C° 0 mm 4 m/S 750 mmHg 13%
    16:00 +44°C° 0 mm 4 m/S 750 mmHg 13%
    17:00 +44°C° 0 mm 4 m/S 750 mmHg 12%
    18:00 +44°C° 0 mm 4 m/S 750 mmHg 12%
    19:00 +43°C° 0 mm 4 m/S 750 mmHg 14%
    20:00 +41°C° 0 mm 4 m/S 751 mmHg 15%
    21:00 +38°C° 0 mm 4 m/S 751 mmHg 17%
    22:00 +37°C° 0 mm 5 m/S 751 mmHg 21%
    23:00 +36°C° 0 mm 6 m/S 751 mmHg 24%

    Morgen, 28 Juni, Freitag

    Zeit Temperatur Niederschläge Wind Luftdruck Luftfeuchtigkeit
    00:00 +35°C° 0 mm 7 m/S 751 mmHg 28%
    01:00 +34°C° 0 mm 7 m/S 751 mmHg 31%
    02:00 +33°C° 0 mm 6 m/S 751 mmHg 34%
    03:00 +32°C° 0 mm 5 m/S 751 mmHg 38%
    04:00 +32°C° 0 mm 4 m/S 751 mmHg 38%
    05:00 +31°C° 0 mm 3 m/S 752 mmHg 38%
    06:00 +31°C° 0 mm 3 m/S 752 mmHg 38%
    07:00 +33°C° 0 mm 3 m/S 752 mmHg 35%
    08:00 +35°C° 0 mm 3 m/S 752 mmHg 32%
    09:00 +36°C° 0 mm 3 m/S 752 mmHg 30%
    10:00 +37°C° 0 mm 3 m/S 752 mmHg 27%
    11:00 +38°C° 0 mm 3 m/S 751 mmHg 25%
    12:00 +39°C° 0 mm 3 m/S 751 mmHg 22%
    13:00 +40°C° 0 mm 3 m/S 751 mmHg 21%
    14:00 +42°C° 0 mm 3 m/S 750 mmHg 19%
    15:00 +42°C° 0 mm 3 m/S 750 mmHg 17%
    16:00 +42°C° 0 mm 3 m/S 749 mmHg 17%
    17:00 +42°C° 0 mm 3 m/S 749 mmHg 17%
    18:00 +42°C° 0 mm 3 m/S 749 mmHg 16%
    19:00 +40°C° 0 mm 3 m/S 750 mmHg 18%
    20:00 +38°C° 0 mm 2 m/S 750 mmHg 19%
    21:00 +36°C° 0 mm 1 m/S 751 mmHg 20%
    22:00 +36°C° 0 mm 2 m/S 751 mmHg 22%
    23:00 +36°C° 0 mm 3 m/S 751 mmHg 24%

    übermorgen, 29 Juni, Samstag

    Zeit Temperatur Niederschläge Wind Luftdruck Luftfeuchtigkeit
    00:00 +35°C° 0 mm 3 m/S 751 mmHg 26%
    01:00 +34°C° 0 mm 4 m/S 750 mmHg 29%
    02:00 +33°C° 0 mm 5 m/S 750 mmHg 31%
    03:00 +33°C° 0 mm 5 m/S 750 mmHg 33%
    04:00 +33°C° 0 mm 5 m/S 751 mmHg 34%
    05:00 +33°C° 0 mm 5 m/S 751 mmHg 35%
    06:00 +33°C° 0 mm 5 m/S 752 mmHg 35%
    07:00 +34°C° 0 mm 5 m/S 752 mmHg 32%
    08:00 +36°C° 0 mm 5 m/S 752 mmHg 29%
    09:00 +37°C° 0 mm 5 m/S 752 mmHg 26%
    10:00 +38°C° 0 mm 4 m/S 752 mmHg 24%
    11:00 +39°C° 0 mm 3 m/S 752 mmHg 22%
    12:00 +40°C° 0 mm 2 m/S 751 mmHg 20%
    13:00 +41°C° 0 mm 2 m/S 751 mmHg 18%
    14:00 +42°C° 0 mm 2 m/S 751 mmHg 16%
    15:00 +43°C° 0 mm 2 m/S 750 mmHg 13%
    16:00 +43°C° 0 mm 2 m/S 750 mmHg 13%
    17:00 +42°C° 0 mm 2 m/S 750 mmHg 13%
    18:00 +42°C° 0 mm 2 m/S 750 mmHg 12%
    19:00 +41°C° 0 mm 2 m/S 750 mmHg 14%
    20:00 +39°C° 0 mm 2 m/S 750 mmHg 15%
    21:00 +37°C° 0 mm 2 m/S 751 mmHg 17%
    22:00 +36°C° 0 mm 2 m/S 751 mmHg 19%
    23:00 +35°C° 0 mm 2 m/S 751 mmHg 21%

    30 Juni, Sonntag

    Zeit Temperatur Niederschläge Wind Luftdruck Luftfeuchtigkeit
    00:00 +33°C° 0 mm 1 m/S 751 mmHg 24%
    01:00 +34°C° 0 mm 2 m/S 751 mmHg 25%
    02:00 +34°C° 0 mm 2 m/S 751 mmHg 26%
    03:00 +32°C° 0 mm 2 m/S 751 mmHg 28%
    04:00 +34°C° 0 mm 2 m/S 751 mmHg 27%
    05:00 +34°C° 0 mm 2 m/S 752 mmHg 26%
    06:00 +35°C° 0 mm 3 m/S 752 mmHg 25%
    07:00 +36°C° 0 mm 3 m/S 752 mmHg 22%
    08:00 +38°C° 0 mm 3 m/S 752 mmHg 20%
    09:00 +39°C° 0 mm 3 m/S 752 mmHg 18%
    10:00 +40°C° 0 mm 3 m/S 752 mmHg 17%
    11:00 +43°C° 0 mm 3 m/S 752 mmHg 15%
    12:00 +43°C° 0 mm 2 m/S 751 mmHg 14%
    13:00 +43°C° 0 mm 2 m/S 751 mmHg 13%
    14:00 +45°C° 0 mm 2 m/S 750 mmHg 12%
    15:00 +46°C° 0 mm 3 m/S 750 mmHg 11%
    16:00 +45°C° 0 mm 2 m/S 750 mmHg 11%
    17:00 +45°C° 0 mm 2 m/S 749 mmHg 11%
    18:00 +45°C° 0 mm 2 m/S 749 mmHg 11%
    19:00 +42°C° 0 mm 2 m/S 750 mmHg 13%
    20:00 +40°C° 0 mm 3 m/S 751 mmHg 16%
    21:00 +38°C° 0 mm 3 m/S 751 mmHg 18%
    22:00 +37°C° 0.1 mm 3 m/S 751 mmHg 19%
    23:00 +37°C° 0.1 mm 3 m/S 751 mmHg 20%

    1 Juli, Montag

    Zeit Temperatur Niederschläge Wind Luftdruck Luftfeuchtigkeit
    00:00 +36°C° 0.1 mm 3 m/S 751 mmHg 21%
    01:00 +35°C° 0 mm 4 m/S 751 mmHg 26%
    02:00 +34°C° 0 mm 6 m/S 751 mmHg 30%
    03:00 +33°C° 0 mm 7 m/S 751 mmHg 34%
    04:00 +33°C° 0 mm 6 m/S 751 mmHg 35%
    05:00 +33°C° 0 mm 6 m/S 752 mmHg 36%
    06:00 +33°C° 0 mm 6 m/S 752 mmHg 36%
    07:00 +34°C° 0 mm 6 m/S 752 mmHg 33%
    08:00 +36°C° 0 mm 6 m/S 752 mmHg 30%
    09:00 +38°C° 0 mm 6 m/S 752 mmHg 26%
    10:00 +39°C° 0 mm 6 m/S 752 mmHg 24%
    11:00 +40°C° 0 mm 6 m/S 752 mmHg 22%
    12:00 +41°C° 0 mm 5 m/S 751 mmHg 20%
    13:00 +42°C° 0 mm 5 m/S 751 mmHg 19%
    14:00 +42°C° 0 mm 4 m/S 751 mmHg 18%
    15:00 +43°C° 0 mm 4 m/S 750 mmHg 18%
    16:00 +42°C° 0.1 mm 4 m/S 750 mmHg 18%
    17:00 +41°C° 0.1 mm 5 m/S 750 mmHg 19%
    18:00 +40°C° 0.1 mm 5 m/S 750 mmHg 19%
    19:00 +38°C° 0.1 mm 4 m/S 751 mmHg 21%
    20:00 +37°C° 0.1 mm 4 m/S 751 mmHg 23%
    21:00 +36°C° 0.1 mm 4 m/S 752 mmHg 25%
    22:00 +35°C° 0 mm 4 m/S 752 mmHg 28%
    23:00 +34°C° 0 mm 5 m/S 752 mmHg 31%

    2 Juli, Dienstag

    Zeit Temperatur Niederschläge Wind Luftdruck Luftfeuchtigkeit
    00:00 +33°C° 0 mm 6 m/S 752 mmHg 34%
    01:00 +32°C° 0 mm 5 m/S 752 mmHg 38%
    02:00 +30°C° 0 mm 4 m/S 752 mmHg 42%
    03:00 +29°C° 0 mm 3 m/S 751 mmHg 47%
    04:00 +29°C° 0 mm 3 m/S 752 mmHg 46%
    05:00 +29°C° 0 mm 3 m/S 752 mmHg 46%
    06:00 +29°C° 0 mm 3 m/S 752 mmHg 46%
    07:00 +30°C° 0 mm 3 m/S 752 mmHg 42%
    08:00 +31°C° 0 mm 3 m/S 752 mmHg 39%
    09:00 +33°C° 0 mm 3 m/S 752 mmHg 35%
    10:00 +35°C° 0 mm 2 m/S 752 mmHg 32%
    11:00 +36°C° 0 mm 2 m/S 752 mmHg 28%
    12:00 +38°C° 0 mm 2 m/S 751 mmHg 24%
    13:00 +39°C° 0 mm 2 m/S 751 mmHg 22%
    14:00 +40°C° 0 mm 3 m/S 750 mmHg 20%
    15:00 +42°C° 0 mm 3 m/S 750 mmHg 18%
    16:00 +40°C° 0.1 mm 3 m/S 749 mmHg 18%
    17:00 +40°C° 0.1 mm 3 m/S 749 mmHg 18%
    18:00 +40°C° 0.1 mm 3 m/S 749 mmHg 18%
    19:00 +39°C° 0.1 mm 3 m/S 750 mmHg 19%
    20:00 +38°C° 0.1 mm 3 m/S 750 mmHg 21%
    21:00 +36°C° 0.1 mm 2 m/S 751 mmHg 22%
    22:00 +36°C° 0 mm 3 m/S 751 mmHg 23%
    23:00 +35°C° 0 mm 3 m/S 751 mmHg 23%
    Mehr zeigen